Theta_e
333 331 331 331 331 330 330 330 329 329 328 328 328 327 326 326 326 326 326 325 324 324 323 323 323 324 324 324 324 324 324 324 325 326 326 326 327 328 329 330 330 331 332 331 332 332 331 329 329 331 333 331 331 331 331 333 332 330 329 329 327 329 326 322 320 320 325 329 330 332 334 335 331 333 332 335 332 328 327 333 331 327 326 325 322
329 329 329 329 329 328 328 328 328 327 326 325 324 324 324 324 325 324 323 323 323 322 322 322 322 322 322 322 323 323 324 324 324 324 323 325 326 327 328 328 329 329 330 329 329 330 330 329 329 328 330 330 331 329 329 331 330 329 329 328 327 327 328 325 323 321 320 326 327 332 334 333 328 334 333 331 331 328 329 332 332 330 329 326 323
329 329 329 328 327 327 327 326 326 325 324 323 322 322 322 322 322 322 322 322 321 321 321 321 321 321 322 322 322 322 323 323 324 323 324 324 324 324 325 326 326 326 325 326 325 326 325 324 323 323 326 327 328 330 332 331 330 328 328 327 329 330 329 327 325 324 321 322 327 327 329 331 328 330 332 332 331 329 328 330 330 330 330 329 326
329 328 327 326 326 324 324 324 324 322 321 321 321 321 321 321 321 321 321 321 320 321 321 320 321 321 321 322 321 321 321 321 322 322 323 323 323 322 323 324 324 323 323 322 322 322 320 318 317 318 320 322 324 325 327 328 330 330 326 329 327 327 327 328 329 326 324 320 325 326 328 328 329 330 331 332 330 328 328 330 332 331 331 332 330
326 326 325 324 323 322 322 322 322 321 320 319 319 320 320 320 320 320 320 320 319 319 320 320 320 319 319 319 319 319 319 319 318 319 321 322 322 321 321 321 322 322 321 321 321 319 316 313 313 313 314 315 317 318 320 323 326 329 327 327 327 328 327 327 328 327 325 324 325 328 330 329 328 329 329 328 328 328 328 328 329 330 331 332 331
325 324 324 322 321 320 320 320 320 319 319 319 320 320 320 320 319 319 319 319 319 319 320 319 319 318 318 318 318 317 317 316 315 316 318 320 320 320 320 320 320 320 320 319 319 318 315 313 312 312 310 310 311 312 315 318 323 323 321 323 326 327 327 327 326 328 327 326 322 323 326 325 325 327 329 328 327 325 325 327 328 329 328 329 330
324 323 322 322 320 319 318 318 318 318 318 319 319 319 319 320 319 318 319 319 318 318 319 318 318 318 317 317 316 315 314 313 313 314 316 318 320 319 318 318 318 318 318 318 318 318 316 314 312 311 308 307 307 307 309 313 316 317 316 316 322 324 325 325 324 324 325 325 325 326 324 326 326 323 327 329 329 328 324 323 323 326 327 327 326
322 321 319 318 317 317 317 317 318 317 318 318 318 319 319 318 318 318 318 317 318 318 318 318 318 317 316 315 314 313 312 311 310 310 312 316 319 318 317 316 316 317 317 317 317 316 316 315 313 311 308 307 306 305 306 307 310 310 310 311 314 319 322 324 324 325 323 322 323 324 324 323 325 326 326 326 324 324 326 324 321 323 325 327 327
320 318 317 315 315 316 316 317 317 317 317 318 318 319 318 318 318 318 317 317 317 318 318 317 316 315 315 314 313 311 310 309 307 304 307 311 318 317 316 315 315 315 315 316 316 316 316 315 314 312 310 308 304 303 303 304 305 304 305 307 309 313 316 320 321 322 322 321 322 325 324 321 323 322 322 321 320 320 324 326 324 325 325 324 327
317 316 315 315 315 315 316 317 317 317 318 317 318 318 318 318 318 318 317 318 317 318 317 317 316 315 314 313 312 311 309 308 301 297 298 305 316 316 316 315 315 315 315 315 315 315 315 315 315 313 307 305 303 300 299 300 302 303 303 304 304 306 309 312 314 315 318 319 316 319 319 319 320 322 321 323 324 324 323 323 320 322 323 321 320
316 313 313 314 315 315 316 316 316 316 317 317 318 317 317 318 318 317 317 317 317 317 316 315 315 315 313 312 312 311 309 303 294 294 294 295 307 317 315 315 314 314 315 315 314 315 315 315 314 314 313 312 305 299 299 298 298 298 299 300 302 302 303 306 309 311 313 314 311 310 311 312 315 319 321 323 324 324 322 322 321 320 319 317 314
313 313 313 314 314 315 316 316 316 316 317 316 317 317 317 317 317 317 317 317 317 317 315 315 315 315 314 313 312 311 309 296 292 293 294 293 296 311 317 315 314 314 314 314 314 315 315 315 314 314 313 312 313 312 306 300 299 299 298 298 298 297 297 301 304 307 307 307 306 304 305 306 311 312 312 315 319 323 323 322 321 319 318 316 316
313 313 314 314 314 314 315 315 315 315 315 316 317 317 317 317 317 317 316 317 317 315 315 315 315 315 315 313 311 310 308 295 292 293 294 293 293 304 317 316 314 314 314 314 314 314 314 314 313 313 313 313 311 311 314 314 304 302 302 302 302 300 296 296 297 305 307 305 303 302 301 304 306 306 308 309 316 320 322 321 320 319 319 317 314
313 312 313 313 314 314 314 314 314 314 315 316 317 316 316 316 317 317 317 317 316 315 315 315 314 314 314 314 312 310 306 295 292 292 293 292 292 298 317 313 312 311 311 311 312 312 313 313 312 312 313 312 309 305 312 313 312 312 310 309 308 306 301 300 299 299 303 305 303 300 301 303 302 302 305 308 315 316 318 319 320 317 315 313 313
311 311 311 312 313 313 313 314 313 313 314 316 316 315 316 316 316 317 317 316 315 314 314 314 314 314 314 315 313 309 305 292 292 292 292 293 291 301 316 314 312 311 310 309 308 309 310 312 312 312 312 311 306 299 304 312 312 312 311 310 310 309 308 307 306 307 306 306 305 304 303 303 303 302 303 307 313 317 318 317 316 314 312 310 308
311 311 311 312 312 313 313 313 313 313 314 315 315 314 315 315 315 316 316 315 315 315 314 314 313 313 314 314 312 310 306 292 291 292 292 293 294 315 315 314 312 311 309 308 306 306 306 308 310 310 311 308 300 293 296 307 314 312 310 310 310 310 308 302 298 299 304 306 306 306 305 303 299 301 301 303 310 317 318 317 315 311 307 304 302
311 311 311 312 312 313 313 313 313 313 313 313 313 314 314 314 315 316 315 314 313 313 313 312 313 312 312 312 312 309 307 296 291 292 292 292 300 316 314 313 312 310 309 308 306 304 303 304 306 307 307 305 296 293 294 301 314 311 310 310 309 309 310 311 300 296 296 296 296 297 297 298 298 298 297 297 301 311 318 313 310 310 305 302 302
311 311 311 311 312 313 313 313 312 312 313 313 313 314 314 314 315 315 314 313 313 313 313 312 312 311 310 309 310 308 306 298 291 292 292 292 297 315 313 312 311 309 308 308 307 305 303 299 301 302 303 302 293 293 293 307 311 311 310 309 308 307 308 310 312 310 300 299 298 298 298 299 300 300 299 299 299 305 310 308 311 309 305 304 301
310 311 311 312 312 313 314 314 313 312 312 313 313 313 313 313 314 314 314 314 313 313 312 311 311 311 310 309 306 307 306 300 292 291 292 293 299 315 312 311 309 309 308 306 307 306 304 301 297 295 298 296 291 293 293 301 311 309 309 309 307 307 307 309 309 308 309 309 308 308 307 305 308 308 306 300 301 304 307 308 310 308 305 305 304
311 312 312 312 313 314 314 313 313 313 313 313 313 313 314 314 314 313 313 313 311 311 311 310 309 308 308 307 306 306 306 302 296 291 292 293 293 308 312 309 307 306 306 305 305 305 304 303 299 292 291 291 292 291 293 293 307 309 308 307 306 305 309 308 309 311 309 308 308 308 307 307 307 307 307 307 307 306 305 306 308 309 305 303 302
311 311 311 311 311 312 313 312 312 313 313 313 313 313 313 313 313 313 312 312 311 310 309 308 307 306 306 305 304 303 302 303 299 290 292 292 292 298 310 308 307 306 305 304 304 303 302 301 301 294 291 292 292 292 292 293 295 307 305 305 306 304 304 309 309 304 308 309 308 307 307 307 306 306 306 305 305 306 305 305 306 306 306 305 304
311 311 311 310 311 311 312 312 313 313 313 313 313 312 313 313 312 312 311 311 310 309 308 307 305 304 304 304 304 303 300 298 302 294 291 292 292 292 304 307 306 307 305 304 303 302 301 300 300 296 291 292 292 292 293 293 295 304 303 292 292 293 308 308 308 308 307 307 306 305 306 305 305 305 304 304 304 305 305 305 305 305 306 306 305
311 311 310 310 310 311 312 312 312 312 312 312 312 311 312 312 312 311 311 310 308 307 307 306 305 303 303 302 303 302 302 299 294 298 292 291 291 292 292 298 295 307 305 303 303 302 302 301 301 296 291 291 292 292 293 294 298 300 292 292 294 296 302 307 306 306 304 305 305 304 304 304 304 303 303 304 304 305 305 305 305 305 304 305 306
310 309 309 310 310 310 311 312 312 312 311 312 311 310 310 311 310 310 309 308 306 305 305 305 304 303 302 301 302 301 301 300 296 294 296 291 292 291 292 291 293 303 304 302 302 301 301 301 299 291 292 292 292 293 293 294 299 293 293 294 296 300 307 306 304 305 304 302 302 302 303 303 304 303 303 305 305 305 305 305 305 304 303 303 304
308 308 309 309 309 310 310 310 311 311 311 311 310 309 309 310 309 309 309 308 306 305 304 304 303 303 302 302 301 301 301 301 300 296 292 292 292 292 291 291 292 294 301 301 301 301 296 291 291 292 293 294 294 296 297 296 293 294 294 296 302 307 306 305 304 304 302 301 301 302 302 303 304 304 305 306 307 306 306 305 305 305 304 303 303
308 308 308 309 309 309 309 309 310 311 311 310 310 309 309 309 308 308 307 306 305 305 303 303 302 303 302 303 302 303 304 304 303 302 298 297 295 292 292 292 294 294 296 298 294 293 292 292 292 293 295 298 303 303 303 304 295 295 295 299 306 305 305 305 304 303 302 301 301 301 302 304 304 305 306 306 305 304 304 304 304 303 303 301 300
307 308 308 308 309 309 309 309 309 310 310 309 309 309 309 308 307 305 305 305 304 303 303 302 302 301 302 302 303 303 304 304 304 305 305 304 304 300 301 299 293 293 301 302 298 301 301 300 299 294 293 290 293 296 297 298 302 303 304 303 304 304 304 304 304 303 302 302 301 302 303 304 305 305 304 303 303 303 304 303 303 302 303 302 300
307 307 308 308 307 308 308 299 304 308 308 308 308 308 307 307 305 302 302 303 303 302 302 301 300 301 300 300 299 298 297 297 298 298 299 298 301 303 303 303 304 304 302 302 304 303 303 298 299 307 306 306 304 303 302 302 301 301 302 302 302 302 302 300 300 304 303 304 303 303 304 303 302 302 302 302 302 302 304 303 302 301 302 302 300
306 307 307 307 307 307 307 308 308 305 302 301 298 296 300 306 304 300 299 298 299 304 304 302 302 302 301 300 299 297 296 296 295 290 292 289 293 299 301 300 301 301 297 291 302 303 302 301 302 300 300 296 298 301 301 301 299 301 301 302 302 302 301 301 301 301 302 302 301 301 301 302 302 303 302 302 302 302 304 303 303 302 302 301 299
306 306 306 307 308 308 309 307 305 304 302 300 299 297 289 289 294 300 297 291 289 289 291 296 300 302 298 296 298 298 296 295 288 288 289 289 289 289 289 290 289 294 292 290 298 300 299 298 299 298 300 300 298 297 297 298 299 298 299 295 300 300 300 300 300 299 300 300 301 299 301 300 302 302 302 301 302 302 302 299 302 302 300 299 299
304 304 304 305 303 307 306 304 304 302 301 300 299 297 296 295 289 288 289 290 289 289 289 289 289 290 296 295 293 288 288 288 288 289 289 289 289 289 290 290 290 290 290 297 297 296 296 296 297 297 297 299 297 298 298 297 296 297 297 298 299 298 297 299 300 298 298 297 297 298 297 300 299 301 301 301 300 301 301 301 302 302 300 299 298
304 304 304 303 303 303 303 302 301 300 299 299 298 297 295 294 294 290 288 289 289 289 289 288 289 289 289 292 295 295 290 288 288 289 289 289 289 289 289 289 290 290 290 290 296 297 298 297 296 296 298 297 296 296 298 298 297 297 296 297 297 297 297 296 298 299 298 298 297 296 297 297 299 297 299 298 297 300 300 299 299 299 299 299 299
305 304 303 303 302 301 301 301 301 300 300 299 298 298 296 294 292 292 293 289 289 289 289 289 289 289 289 288 288 289 289 289 288 289 289 289 288 289 288 290 291 290 291 295 297 296 297 299 299 300 299 297 298 298 298 299 299 299 298 297 296 297 298 299 299 298 296 297 296 296 297 297 296 296 296 297 298 297 297 298 300 299 299 297 298
305 304 304 304 303 303 302 302 301 301 301 299 299 298 297 296 295 293 292 292 294 292 290 289 289 289 288 288 289 289 288 289 288 288 288 289 288 289 288 293 290 289 290 300 297 296 298 298 298 298 299 298 300 299 296 298 297 298 297 298 298 298 298 299 298 296 296 296 295 295 295 296 296 296 295 296 297 297 296 297 297 297 297 297 297
306 298 294 298 304 303 303 303 302 301 301 301 299 298 298 296 296 295 294 294 293 293 293 294 292 290 293 291 289 288 289 288 288 288 288 289 289 289 289 299 297 298 300 301 300 299 298 298 298 299 299 298 298 297 298 299 298 297 297 297 298 298 297 296 296 297 295 296 295 295 295 295 296 295 295 295 295 295 295 295 296 297 297 296 297
305 304 304 303 304 304 303 303 303 302 302 301 301 299 299 296 296 296 296 295 295 295 294 295 295 290 288 289 287 288 288 288 288 288 289 288 289 288 294 295 295 297 296 297 298 297 298 298 298 299 299 299 300 300 299 298 298 298 298 297 294 296 296 296 295 294 293 294 293 293 294 295 295 294 296 296 296 294 294 294 294 294 295 296 296
304 304 304 305 304 304 304 304 304 303 298 300 301 300 300 301 299 299 299 297 297 297 296 295 295 295 293 294 291 288 287 288 289 289 289 290 288 294 298 297 297 297 297 297 297 298 298 298 298 299 299 299 299 300 300 299 299 298 296 297 297 296 294 294 295 293 295 294 294 293 293 294 294 294 294 293 294 294 294 294 293 293 293 292 292
305 305 305 305 305 304 303 303 300 294 300 301 301 302 301 301 300 299 298 299 296 296 295 295 293 295 294 294 296 295 294 290 289 289 290 291 294 296 297 297 296 296 296 297 297 297 297 298 298 299 298 298 299 299 299 299 299 298 297 298 295 296 293 295 293 294 293 295 295 294 294 294 295 294 293 293 293 293 293 293 293 294 293 292 293
305 295 291 294 296 303 302 300 299 300 300 300 300 299 297 299 299 300 298 297 296 296 296 297 298 296 295 296 297 298 294 296 294 294 295 296 296 298 298 297 297 297 297 297 297 296 297 296 297 298 297 297 296 297 297 297 297 297 296 296 294 296 296 296 294 293 294 295 294 295 295 295 295 295 294 294 293 293 293 292 292 293 293 292 293
303 303 298 293 298 298 298 297 299 300 300 300 299 299 298 298 298 297 297 298 298 297 298 297 296 297 297 298 297 299 298 295 294 294 294 295 295 298 298 297 297 297 298 298 298 297 297 297 297 297 297 296 296 295 295 295 292 294 294 293 294 294 294 294 294 294 294 294 294 294 294 294 294 294 294 294 294 293 293 292 292 292 292 292 292
303 302 295 295 294 298 297 300 299 300 300 300 299 298 298 298 298 296 299 298 298 297 298 298 299 300 298 294 287 289 298 297 297 296 295 295 296 297 297 297 296 297 297 296 298 297 297 297 296 296 296 296 296 297 296 295 293 292 292 292 293 293 293 292 294 294 294 293 294 294 294 294 294 294 293 293 293 294 294 294 293 293 293 292 292
301 300 299 298 299 299 299 298 300 300 299 299 299 299 296 297 298 298 297 296 295 296 297 298 299 297 291 284 290 287 298 299 297 298 297 297 298 298 297 298 298 298 297 298 298 297 296 296 294 294 294 293 294 294 294 294 294 293 293 292 291 291 292 292 292 292 293 294 293 293 293 293 293 294 293 293 294 294 293 293 293 293 293 293 292
299 300 299 298 299 299 299 299 299 300 298 299 299 295 297 298 299 298 298 296 298 297 297 296 295 295 295 292 291 288 298 299 295 297 298 298 297 296 297 299 298 299 299 299 298 298 296 295 295 295 294 294 296 293 293 293 294 293 293 292 292 291 291 291 291 292 293 294 293 291 292 293 294 294 293 293 293 293 293 292 292 293 293 293 292
299 299 298 298 299 299 300 300 299 298 299 297 296 296 297 298 299 298 298 298 297 298 297 296 295 295 296 295 294 296 299 298 298 299 298 297 297 297 298 299 299 299 298 298 299 298 297 294 295 294 297 296 297 298 296 295 296 293 293 293 291 291 291 291 291 290 290 291 291 292 293 292 292 294 293 292 293 292 293 291 292 292 292 293 292
300 299 299 299 299 300 299 299 299 300 296 296 298 298 298 299 298 297 297 298 296 297 298 296 295 296 294 296 297 299 299 299 297 296 296 297 297 298 299 298 298 299 298 297 298 299 297 295 294 293 293 295 297 296 295 296 296 294 295 294 293 293 292 291 292 291 291 290 291 291 291 291 291 292 292 293 292 292 292 292 292 290 291 292 292
300 299 299 299 299 299 298 300 299 300 298 298 299 298 299 299 298 298 296 298 297 297 297 297 297 296 295 297 298 297 299 299 298 298 298 299 297 298 299 298 298 297 296 297 297 297 296 295 295 294 292 293 295 293 296 296 296 297 298 297 294 294 294 294 293 292 292 291 292 292 291 291 290 290 287 289 292 292 290 289 290 291 291 289 291
301 300 300 300 299 298 299 300 299 299 299 299 298 298 299 299 299 298 295 296 296 299 298 298 298 298 299 298 298 298 298 298 298 298 298 300 299 299 299 300 298 296 297 297 295 296 295 294 295 294 293 293 293 295 296 296 296 296 297 297 298 295 295 295 294 294 294 293 292 293 292 292 291 291 290 290 290 291 290 289 290 289 289 290 290
301 300 300 300 300 299 300 300 299 294 299 298 298 298 297 299 298 297 297 296 297 297 298 298 298 298 297 298 299 299 300 299 299 300 299 299 299 299 299 298 297 297 297 295 297 295 295 295 295 294 294 293 293 293 295 297 297 297 297 297 297 297 296 293 296 297 295 295 293 292 292 292 292 292 291 290 289 290 289 290 290 290 290 290 290
302 301 300 300 300 299 299 298 298 297 299 299 298 298 297 299 298 298 298 297 297 297 299 299 299 299 299 299 299 299 299 297 300 300 299 299 300 300 300 299 295 298 297 295 297 296 296 296 294 296 295 294 295 295 295 296 296 297 298 297 294 289 289 290 293 295 294 293 294 293 292 291 291 291 291 290 290 291 290 290 289 289 289 289 289
302 301 301 300 299 299 299 298 298 299 301 299 299 298 298 298 298 298 299 299 298 298 299 299 299 300 300 299 298 299 299 299 300 300 300 300 299 300 298 298 299 298 297 297 296 297 297 295 297 296 295 296 296 295 296 296 296 296 295 297 289 288 289 288 289 290 293 294 293 293 294 293 292 292 293 292 291 290 290 290 290 290 291 290 290
300 301 301 300 300 300 299 299 298 300 300 299 299 299 298 298 299 298 299 299 299 298 298 299 300 300 300 301 299 301 300 300 300 301 301 301 301 300 298 299 299 296 298 298 298 298 297 297 297 297 297 296 296 296 296 296 296 296 294 291 287 288 288 288 292 288 288 290 292 293 293 293 292 292 292 292 292 292 291 291 291 290 291 291 291
Wind_Speed
10 9 8 7 7 6 5 4 3 3 3 2 3 4 4 3 3 3 3 4 3 4 4 4 5 5 6 6 7 6 7 7 7 7 7 8 8 8 9 10 12 11 11 12 11 11 11 12 10 9 7 7 5 5 6 6 6 5 5 6 7 5 7 8 10 9 7 6 5 6 6 5 7 10 10 8 8 10 10 10 12 10 11 10 11
10 10 8 7 7 6 4 4 2 3 4 3 4 4 4 4 4 4 4 4 3 3 4 4 5 5 5 6 6 6 7 7 7 6 7 8 8 8 8 10 11 12 12 12 13 12 12 13 14 14 13 11 9 8 8 7 6 6 6 6 8 8 7 7 8 9 10 6 6 5 5 3 7 8 7 9 8 9 12 9 8 10 10 10 10
11 9 8 7 6 5 4 3 3 3 4 4 5 5 5 5 5 5 4 4 4 4 5 5 5 5 5 6 6 6 7 7 7 7 7 8 9 9 9 10 10 10 11 12 13 12 13 13 14 13 11 12 11 10 9 8 6 6 6 7 7 6 6 8 10 7 6 7 5 7 5 4 6 6 7 7 8 11 12 12 11 9 9 9 11
10 9 9 7 6 5 4 3 3 4 4 4 5 5 5 5 5 5 6 5 5 5 5 6 6 6 6 7 7 8 8 8 8 8 8 9 9 9 9 9 9 9 10 11 11 11 12 12 13 13 13 12 12 11 10 10 7 6 8 5 5 7 7 7 8 6 6 8 6 6 5 4 6 7 8 8 9 9 11 11 10 10 9 10 11
10 9 8 8 7 6 5 4 5 5 5 5 6 6 6 6 5 6 6 6 6 6 6 6 6 7 7 7 8 8 9 9 9 9 8 9 9 9 9 9 9 9 10 10 10 10 12 11 12 13 13 12 12 11 11 13 10 7 7 6 6 6 5 6 7 5 6 6 5 3 3 5 7 4 6 8 9 9 10 11 11 10 9 7 7
11 10 8 8 7 7 6 6 7 7 6 6 6 7 6 6 6 6 7 7 6 7 7 6 6 7 8 8 8 9 9 10 10 10 9 9 8 9 9 9 9 9 10 10 10 9 10 12 12 13 13 12 11 12 13 13 11 10 11 10 8 7 7 6 6 6 6 5 6 4 3 3 3 1 3 6 6 6 6 8 8 7 8 8 9
10 9 8 7 7 8 8 7 7 7 6 6 6 6 6 6 7 7 7 7 7 7 7 7 7 8 9 9 10 10 10 10 10 10 9 9 9 9 9 9 9 8 9 10 9 9 10 10 12 12 13 12 11 12 13 12 11 12 11 11 11 9 7 6 5 6 7 5 4 4 4 1 1 2 1 2 3 5 8 10 10 8 8 8 8
9 9 8 8 7 8 7 8 8 8 7 7 7 7 7 7 7 7 7 7 7 7 7 7 7 8 9 9 9 9 10 11 11 11 10 9 8 9 9 10 9 9 9 9 9 9 9 10 9 10 10 12 13 14 14 11 10 11 12 11 11 10 9 7 6 5 5 5 5 4 3 3 1 1 1 1 2 3 4 4 7 9 10 9 10
10 9 8 8 8 8 8 7 8 8 8 7 7 7 8 7 7 7 7 7 6 7 7 8 8 9 10 9 9 9 10 9 7 8 8 10 8 9 9 10 10 9 9 9 10 10 9 9 9 7 9 11 13 11 14 15 11 11 12 12 11 10 9 8 8 7 6 6 5 2 2 2 2 2 1 1 2 2 1 2 2 2 5 8 4
9 9 8 8 8 8 8 8 9 8 8 8 8 8 7 7 7 7 8 7 7 7 8 8 9 9 9 10 9 9 8 7 10 15 12 8 8 8 8 9 10 9 9 9 10 10 10 9 10 9 6 7 10 10 11 13 15 14 13 14 13 12 10 9 9 8 7 7 8 7 5 4 4 2 3 2 2 1 1 2 1 2 2 2 3
10 8 8 8 8 8 8 9 9 9 8 8 8 8 8 7 8 8 8 8 8 8 8 9 9 9 10 9 10 9 8 8 17 16 16 16 9 8 9 9 9 10 10 10 10 10 10 10 9 12 10 4 6 11 10 11 10 12 16 17 16 13 12 11 9 10 9 8 7 8 8 8 9 9 6 5 2 3 2 4 3 3 3 3 2
11 9 9 9 9 9 9 9 9 9 8 8 8 8 8 8 8 8 8 9 8 9 9 9 9 9 9 9 10 9 8 13 17 17 17 17 14 7 9 8 9 9 10 11 10 10 11 10 9 9 9 11 9 5 7 11 13 12 13 16 18 18 15 13 11 11 11 10 10 10 8 10 7 7 8 8 7 3 2 2 3 4 4 4 2
9 9 10 10 9 9 9 9 9 9 8 8 8 8 8 9 9 9 9 9 9 9 9 9 9 9 9 9 9 8 8 15 15 17 17 17 16 11 9 9 9 9 10 10 11 11 10 9 10 9 9 13 11 11 10 9 11 13 14 16 18 20 18 17 15 13 10 10 11 12 12 10 10 9 10 10 8 6 3 1 3 3 4 4 4
9 10 10 10 10 10 10 10 10 9 8 8 8 9 9 9 9 9 9 9 9 9 9 10 9 9 9 9 9 8 9 12 15 16 15 16 14 10 10 10 11 11 11 11 10 11 11 10 9 10 11 11 12 12 9 11 10 12 14 16 18 16 17 18 17 17 15 13 12 11 11 10 9 9 10 9 9 8 5 3 2 6 6 7 8
10 10 11 10 10 10 10 10 9 9 8 8 9 9 9 9 9 8 8 8 8 8 8 9 8 9 9 8 8 8 8 16 15 15 15 15 15 7 10 9 9 11 12 12 12 11 11 10 10 10 10 11 11 13 10 9 10 10 11 12 12 10 11 12 13 13 12 12 12 12 12 12 11 11 10 8 9 6 6 8 9 10 10 11 14
11 10 11 11 11 10 10 10 10 9 9 8 9 9 8 8 9 8 8 8 8 8 8 8 9 9 8 8 8 8 9 17 17 17 18 17 17 4 8 9 9 10 11 13 13 12 11 11 10 10 10 12 17 20 15 8 9 10 11 11 12 9 7 6 9 9 8 8 9 9 9 13 18 16 16 14 9 6 6 7 8 10 12 13 11
11 11 11 11 11 11 11 11 10 9 9 9 9 9 8 8 8 8 9 8 8 8 8 8 8 8 9 8 8 8 9 15 18 17 18 18 11 6 7 8 8 9 10 10 11 13 13 13 11 10 11 12 17 20 21 14 9 10 11 11 10 11 11 6 8 9 10 11 12 15 16 17 21 25 25 25 19 11 5 8 9 7 12 12 9
11 11 11 11 11 11 11 11 11 10 9 9 9 8 8 7 8 8 8 8 8 9 8 9 9 9 9 9 8 8 8 13 18 18 18 19 15 4 6 6 7 8 9 10 9 10 14 19 16 12 12 12 17 20 23 14 10 10 11 11 12 12 11 10 9 8 9 10 12 13 16 17 18 22 25 25 24 19 12 11 8 9 11 11 11
11 11 11 11 11 11 11 11 10 10 10 9 8 9 8 9 8 8 8 7 8 8 7 8 8 8 8 9 10 10 9 12 17 17 18 18 14 4 7 7 7 8 7 9 9 9 10 12 16 14 11 14 19 19 21 16 9 10 10 10 12 13 11 11 9 10 11 13 13 14 15 16 16 16 17 24 26 21 18 14 10 9 10 9 9
11 11 11 11 11 11 10 10 10 10 10 10 9 9 9 9 8 8 7 7 8 8 8 8 9 9 8 9 9 10 9 11 14 18 18 19 20 9 7 6 7 8 8 8 8 9 10 10 11 15 15 16 16 17 17 18 11 11 10 10 9 9 9 9 6 7 12 11 12 13 14 14 14 15 16 17 18 19 18 14 12 9 10 10 9
12 12 11 11 11 11 10 9 8 9 9 9 9 9 8 8 8 8 8 8 8 8 9 9 9 9 9 9 10 10 9 9 12 17 16 18 19 15 6 8 8 8 8 8 8 8 8 9 9 12 14 15 16 16 15 15 13 9 9 7 6 8 6 9 9 12 12 11 12 12 12 13 14 14 14 14 14 12 13 15 14 13 10 9 8
12 12 12 11 11 11 10 8 7 7 10 9 10 9 9 9 8 9 8 8 9 9 9 8 8 9 9 9 9 9 11 13 10 14 16 16 17 18 10 9 9 7 8 8 8 8 9 8 8 9 12 13 15 16 17 14 13 10 10 10 12 13 10 9 9 9 11 11 11 11 12 12 12 13 13 14 14 13 12 12 13 13 12 10 10
13 13 12 12 11 12 10 9 9 8 9 9 10 10 9 9 9 9 9 8 9 9 9 8 8 8 8 8 8 9 9 10 12 11 14 16 16 16 17 13 14 8 8 8 8 7 7 8 8 11 11 10 11 14 14 16 13 11 14 13 11 7 8 10 10 10 10 11 12 12 12 12 12 13 13 13 13 13 13 13 14 14 13 12 13
13 13 12 12 11 10 11 12 11 10 10 9 9 9 9 9 8 8 7 7 8 8 7 7 8 7 7 7 7 8 8 9 9 11 12 14 14 15 15 15 14 9 9 8 8 8 7 7 6 10 10 9 7 7 12 12 11 16 15 15 9 9 9 10 10 10 10 11 12 12 13 12 12 12 12 12 12 12 12 12 13 14 15 14 15
13 13 13 14 13 12 11 11 11 10 10 9 9 8 8 8 7 7 7 7 6 6 6 6 6 6 7 7 7 7 7 8 8 9 11 12 13 13 14 14 13 11 9 9 8 6 4 8 8 8 9 8 9 8 7 8 11 14 15 15 13 9 9 10 10 10 11 11 11 11 11 12 12 11 11 11 11 11 11 11 11 12 13 14 15
14 14 14 13 13 12 12 12 11 10 10 8 8 7 7 8 7 6 6 6 6 6 6 6 6 6 6 6 6 5 5 5 6 6 6 9 8 10 11 11 11 11 9 6 4 2 5 9 8 6 5 6 9 10 10 9 5 8 13 14 11 11 10 9 10 10 11 11 10 11 11 11 11 11 11 11 11 12 12 11 11 11 11 12 13
14 13 13 13 12 12 12 11 10 10 9 8 6 6 6 6 6 6 6 5 5 6 6 6 6 6 5 5 5 4 4 4 5 4 4 2 4 8 7 7 8 8 6 5 6 1 3 4 5 6 8 10 9 7 9 12 11 10 10 11 11 11 11 11 10 9 9 10 10 10 11 10 9 10 11 11 11 11 12 11 11 11 11 11 12
13 14 14 12 11 10 11 9 10 9 8 6 6 7 8 7 9 10 9 6 4 7 5 6 6 6 5 5 5 5 6 6 7 7 8 8 8 5 6 4 3 3 7 7 7 4 4 1 3 2 4 3 5 9 9 10 11 11 10 10 10 10 12 13 12 11 10 10 9 8 9 9 10 10 10 10 11 11 11 11 11 11 11 11 12
13 14 13 11 11 10 11 10 10 9 10 11 12 13 9 5 9 10 10 8 9 6 4 6 6 7 7 5 5 6 6 6 6 6 5 6 7 7 7 6 6 5 7 9 6 4 5 6 6 6 7 6 8 9 9 9 9 10 12 11 10 10 10 10 10 10 10 9 10 10 10 9 10 10 10 10 11 11 10 10 11 11 11 11 13
13 12 11 11 11 11 9 9 9 9 10 10 11 12 17 19 13 8 8 11 16 18 14 9 7 6 9 9 8 6 6 5 3 5 7 8 10 10 8 8 7 7 9 15 8 5 6 4 6 6 7 7 6 6 7 8 8 8 9 10 10 10 9 10 10 10 9 9 9 8 9 7 9 9 9 10 10 10 10 10 11 10 11 11 11
12 11 11 11 9 8 9 10 9 9 10 9 9 11 10 11 15 15 13 14 16 17 17 18 18 17 10 8 10 13 10 7 5 5 7 8 9 9 9 9 9 10 9 7 2 4 3 4 4 4 5 7 5 5 4 6 5 6 7 9 9 10 8 10 9 9 8 6 7 8 6 8 8 9 9 9 9 9 9 10 10 10 10 10 11
10 10 9 9 9 9 9 10 10 10 10 9 10 10 10 10 10 14 15 16 16 16 16 16 16 15 15 10 6 6 7 7 6 7 7 9 9 9 11 11 11 12 13 11 1 3 3 4 4 4 6 6 4 6 7 7 6 6 5 5 6 8 8 8 8 9 7 7 6 5 6 6 9 7 9 8 8 9 9 7 9 9 10 10 10
11 10 10 10 9 10 10 10 10 9 10 10 10 9 9 9 10 9 10 13 15 14 14 14 13 13 13 14 14 11 7 5 6 6 7 7 8 9 11 12 11 12 11 3 4 3 4 6 6 6 6 5 7 7 6 7 7 7 7 6 6 8 8 8 8 9 7 8 6 6 6 5 5 6 5 6 6 6 6 6 8 8 8 8 7
12 10 10 10 10 9 9 9 9 9 9 9 9 9 9 9 9 10 10 8 8 10 10 10 10 11 11 9 7 6 5 6 5 6 6 7 8 9 7 8 13 14 8 0 3 4 5 6 6 6 6 6 6 6 5 6 7 7 7 7 8 8 8 8 8 8 6 6 6 5 6 6 6 6 5 5 6 6 5 6 6 5 5 6 5
11 9 9 10 9 9 9 9 9 9 9 9 9 9 9 9 9 9 9 8 8 8 7 6 6 8 5 5 5 3 4 3 4 5 7 8 8 8 9 7 2 1 2 5 5 5 5 5 6 5 6 5 6 6 6 6 6 6 7 6 7 7 7 6 7 8 6 6 6 6 5 5 5 5 6 6 6 6 7 7 5 6 7 5 5
11 11 10 9 9 9 9 9 8 9 9 9 9 9 9 9 9 8 8 8 8 8 8 7 6 5 6 6 3 3 1 1 3 6 8 8 11 5 3 2 2 3 4 5 5 5 5 5 5 5 5 5 5 6 6 6 6 7 6 7 5 5 5 5 4 4 4 5 5 5 5 5 6 4 4 4 7 6 5 5 5 6 4 5 5
11 10 9 9 9 8 8 8 8 8 8 9 9 9 8 8 8 8 8 8 8 7 8 8 7 5 5 4 3 2 3 3 6 6 10 11 12 8 2 3 3 4 4 4 4 4 4 5 5 5 5 5 5 5 5 5 5 6 6 6 7 5 4 4 4 4 3 4 3 4 4 4 4 5 5 5 5 4 4 4 5 5 5 6 4
11 10 9 9 9 9 9 8 10 10 9 8 8 7 7 8 8 8 7 8 8 8 8 8 8 7 7 6 6 4 5 6 6 7 9 9 6 1 3 3 3 4 4 4 4 4 4 4 4 4 4 4 4 5 4 5 5 4 3 4 2 3 4 1 3 4 3 3 3 4 4 3 3 4 4 4 4 4 5 5 3 3 3 3 4
8 11 11 9 9 8 9 9 9 8 7 7 7 8 8 8 7 7 8 8 8 8 8 8 7 7 7 7 6 6 7 6 4 2 0 0 1 1 2 3 3 4 3 3 3 3 4 4 3 4 4 4 4 4 4 4 4 3 3 2 2 3 3 3 3 3 3 3 3 3 3 3 3 3 3 3 3 3 3 3 4 4 3 3 3
10 10 7 7 9 9 10 9 8 8 7 7 8 8 7 7 7 8 8 8 7 6 7 6 7 7 7 6 4 4 5 3 2 2 2 1 0 2 2 2 2 2 2 3 3 3 3 3 3 3 3 3 4 4 4 4 3 2 2 3 2 3 3 3 3 3 3 3 3 3 3 3 3 3 3 3 3 3 3 3 3 3 3 3 2
10 10 9 8 9 9 9 8 8 8 7 7 8 7 7 7 8 7 7 7 7 6 6 6 6 5 6 5 4 4 4 3 3 4 3 1 1 2 2 2 2 3 2 2 2 2 2 3 3 3 3 3 3 3 3 3 2 2 2 1 2 2 2 2 3 3 2 3 3 3 3 3 3 3 3 2 3 3 2 2 3 2 2 2 3
10 10 9 9 9 8 8 8 8 8 8 8 7 7 7 7 7 6 7 7 6 6 6 6 5 5 5 5 7 8 7 3 3 3 3 3 2 2 1 2 2 2 2 2 2 2 3 3 2 2 2 1 1 1 1 1 1 1 1 2 2 2 2 2 2 2 2 2 2 3 3 3 2 1 2 5 2 2 2 3 2 2 2 2 2
11 9 10 9 8 8 8 8 8 8 8 7 7 7 7 7 7 7 7 6 6 6 6 6 6 7 6 1 5 8 4 4 2 2 2 2 2 2 2 2 2 2 2 2 2 2 1 1 0 1 1 0 0 1 2 1 2 1 1 1 1 1 2 2 1 0 0 0 1 1 1 3 2 1 2 2 2 2 2 2 2 2 2 1 2
10 10 9 9 8 8 8 8 8 7 6 7 8 7 7 6 7 7 6 6 6 6 6 7 7 7 7 5 5 6 3 4 4 3 2 2 2 1 2 2 2 2 2 1 2 1 1 0 0 0 1 0 1 1 1 1 0 1 0 0 1 1 1 1 1 1 2 2 1 1 0 1 1 2 0 0 1 2 1 1 1 2 3 2 2
9 9 9 8 8 8 8 8 8 7 8 8 7 7 6 6 7 7 7 6 6 6 6 7 7 7 7 7 6 4 3 3 2 2 2 3 2 1 1 3 2 1 0 1 1 2 0 0 0 0 0 0 2 1 0 0 0 1 1 1 1 0 1 1 1 2 1 2 3 0 1 1 1 1 1 0 0 1 1 0 1 2 1 1 2
9 8 8 8 8 8 8 8 8 8 7 7 7 7 6 6 7 7 7 7 7 6 7 7 7 7 7 7 6 4 4 4 4 4 3 2 2 2 1 1 2 2 1 1 1 0 0 0 1 1 2 1 1 1 1 1 2 1 1 1 0 0 0 0 0 0 0 1 3 2 0 0 0 2 2 2 2 1 1 1 1 1 2 2 1
9 8 8 8 7 8 8 8 7 8 8 7 7 7 6 6 7 7 7 7 7 6 6 7 7 6 6 6 6 5 5 3 4 3 5 4 3 3 2 2 1 2 2 2 1 2 2 2 2 1 1 2 2 3 4 3 3 2 3 3 3 1 1 1 1 1 0 0 1 3 2 2 1 1 3 1 2 1 0 1 1 1 2 2 2
7 8 7 8 7 7 7 7 7 8 7 7 7 7 6 6 7 7 7 7 7 6 7 7 7 7 6 6 5 5 5 5 5 4 5 4 5 4 4 3 2 2 3 2 3 3 3 3 3 3 3 3 3 3 4 5 5 5 4 5 5 3 3 3 1 2 1 1 0 1 1 3 2 1 1 1 2 2 2 1 1 2 2 2 2
7 7 7 7 7 8 7 7 8 8 7 7 7 7 6 6 7 7 7 7 7 7 6 6 6 6 6 6 6 6 5 5 5 5 6 4 5 5 5 4 4 4 3 3 3 4 4 4 4 4 4 4 4 4 4 6 6 6 5 4 4 13 10 7 3 1 4 0 2 2 2 2 2 2 1 2 2 2 2 2 2 2 2 2 2
6 7 7 7 7 7 7 7 7 7 7 7 7 7 7 6 7 7 7 8 7 7 6 6 6 6 6 6 6 6 5 6 6 6 6 6 5 6 5 5 5 5 5 5 5 4 4 5 5 5 5 5 5 5 5 5 7 5 5 3 9 10 9 10 8 5 2 4 3 3 3 3 3 3 3 3 3 3 3 3 3 3 3 3 3
6 6 7 7 6 6 7 7 8 7 7 7 7 7 7 7 6 7 6 7 7 7 7 7 6 6 6 6 6 6 7 7 7 6 6 7 7 7 5 5 5 5 6 6 6 6 6 5 6 6 6 6 6 6 6 6 6 6 8 5 8 9 9 9 5 8 7 6 4 4 5 5 4 4 5 4 4 4 4 5 4 4 4 4 4
Wind_Direction
108 106 116 122 126 107 116 93 108 101 108 117 125 108 113 104 88 81 75 60 19 18 11 7 3 357 4 358 352 351 346 347 344 340 338 334 325 323 326 325 322 329 334 337 342 346 344 342 349 6 355 1 322 316 320 309 301 282 272 273 277 273 262 257 261 270 277 273 289 281 280 263 248 224 219 186 153 177 201 196 181 165 177 177 179
120 119 123 127 120 130 119 122 114 109 115 117 109 110 97 79 79 72 73 70 44 33 31 27 23 17 17 8 5 2 356 356 351 346 338 334 335 337 335 333 337 345 350 349 354 357 355 353 3 359 354 347 350 346 341 331 318 303 284 262 260 254 239 246 252 255 265 286 284 269 265 251 265 227 204 185 171 176 187 189 192 168 177 170 169
129 130 128 129 128 126 118 120 126 118 125 124 115 113 103 91 83 88 79 74 61 48 45 41 36 31 19 19 13 5 1 353 355 351 345 346 346 346 344 345 348 353 353 354 360 0 2 4 3 354 348 343 345 346 346 343 335 321 309 299 290 282 267 251 252 254 268 272 267 276 266 236 236 244 218 208 183 181 186 192 184 175 180 174 178
133 132 129 130 136 128 126 111 130 129 120 108 98 92 94 87 85 82 77 71 71 59 54 44 43 31 23 18 13 8 6 360 358 356 350 351 354 354 352 353 354 2 4 7 10 11 15 13 6 0 356 353 351 348 347 339 332 328 329 326 315 301 280 269 255 261 272 281 279 287 287 250 245 232 226 207 193 186 193 189 188 184 180 185 177
129 129 135 138 135 136 131 141 131 121 119 109 106 102 91 88 79 77 82 78 68 65 58 48 36 34 26 23 17 14 12 6 5 358 1 356 358 359 359 355 3 10 12 13 18 23 30 24 15 12 9 5 0 351 345 339 330 330 343 336 334 323 302 282 266 265 277 278 285 285 279 269 252 229 221 214 206 199 193 189 191 187 192 180 180
132 140 144 142 145 139 138 135 126 121 112 106 99 91 91 90 89 80 79 79 72 63 57 47 40 43 40 35 29 25 21 13 9 3 359 359 1 5 6 6 8 14 18 18 20 33 41 31 27 23 18 12 1 355 349 346 345 356 353 336 330 332 329 318 312 276 246 265 287 293 272 286 284 196 209 206 210 195 188 193 189 190 190 176 184
140 138 140 142 137 136 139 134 126 117 110 103 96 95 94 92 87 83 78 74 71 65 58 60 54 47 43 38 34 28 23 16 11 5 2 3 12 11 18 14 15 18 22 24 23 33 41 39 36 36 34 22 14 5 356 355 356 357 354 342 332 327 334 335 325 320 314 302 284 272 286 270 255 322 294 229 229 214 194 180 191 197 197 199 186
134 133 133 130 131 132 130 128 120 112 107 105 101 99 98 92 86 82 79 73 69 69 68 63 62 52 48 45 40 33 27 26 17 2 353 355 8 21 22 20 19 22 23 27 32 33 36 44 45 45 53 48 40 28 23 8 3 5 358 348 342 336 338 338 344 338 321 318 312 304 277 277 280 299 72 197 249 286 249 224 190 177 189 191 188
132 130 126 130 136 131 126 118 113 111 113 110 108 105 101 96 94 89 84 82 77 72 65 62 62 59 54 52 47 40 37 25 12 354 345 341 11 27 28 25 28 25 25 29 31 35 38 44 44 52 58 77 60 59 50 38 28 18 7 1 357 352 352 343 357 357 358 338 324 316 319 289 289 254 204 216 220 250 253 222 225 153 172 186 182
120 121 129 135 134 129 126 121 114 114 114 113 112 110 104 100 99 93 89 84 81 73 68 64 61 59 56 53 52 46 38 20 351 346 348 349 349 35 32 32 29 28 28 29 31 32 34 34 40 59 94 69 72 67 62 57 51 45 30 22 13 8 3 4 10 2 353 16 9 352 340 332 318 280 265 253 240 140 131 131 229 94 129 70 49
104 122 136 138 131 128 124 117 116 116 117 115 115 111 107 105 100 97 96 89 80 73 70 67 64 59 58 56 53 52 41 9 352 353 345 345 339 22 41 39 34 34 34 33 32 33 34 36 36 29 31 74 93 72 65 68 59 48 43 38 34 28 16 13 16 14 5 23 14 17 20 15 8 354 329 298 240 203 174 181 176 131 161 151 138
119 135 141 135 130 127 123 121 120 119 117 114 113 111 110 107 105 99 92 84 78 76 71 68 66 63 61 60 56 55 47 12 354 348 345 341 343 357 50 41 37 39 36 35 36 32 33 38 35 32 29 15 8 85 83 68 56 45 45 44 36 33 35 33 22 22 21 21 20 21 10 6 358 4 358 352 339 308 186 172 180 179 171 181 138
123 143 139 132 128 123 120 117 114 116 116 115 116 114 111 110 103 94 89 84 83 79 74 69 66 65 64 63 60 53 37 13 351 353 344 342 340 339 59 42 41 44 33 29 29 30 30 35 37 36 28 16 14 2 31 45 57 52 45 45 44 40 33 32 33 33 32 33 24 19 14 353 1 352 345 335 321 332 345 241 193 174 163 152 104
138 139 132 129 128 125 122 120 118 117 121 123 121 118 115 110 109 104 100 96 88 81 74 71 70 67 63 65 64 51 30 6 357 353 346 339 336 329 66 51 51 46 38 32 25 18 22 30 31 36 35 22 9 355 351 46 34 39 41 44 45 45 45 41 40 37 38 43 39 33 17 10 6 343 340 334 355 9 347 0 50 40 39 50 56
135 133 129 126 126 123 120 121 119 119 124 126 123 120 115 115 110 105 102 96 91 86 79 75 70 66 63 63 64 50 31 8 1 354 354 348 340 328 62 55 55 53 46 41 32 24 17 22 32 31 28 16 6 347 337 15 46 43 43 43 42 43 43 44 39 40 43 43 43 41 33 28 23 14 355 349 356 9 28 64 75 86 81 68 55
135 135 129 128 128 125 123 123 123 125 125 124 119 113 113 111 108 106 103 97 91 87 83 76 70 65 61 61 58 50 34 11 1 0 358 356 331 55 61 61 52 52 54 47 40 30 20 15 20 29 21 13 356 347 349 339 49 47 44 41 38 50 67 80 72 63 54 47 47 42 34 33 34 29 25 21 8 14 57 70 72 80 79 65 60
134 130 126 126 126 126 127 128 128 126 122 120 119 120 121 116 108 108 104 100 94 85 80 73 68 64 57 49 49 48 36 11 3 2 0 358 346 73 68 64 58 55 52 54 53 45 34 21 22 23 18 14 354 357 356 343 49 43 50 47 41 38 45 75 98 78 63 53 49 46 39 37 37 33 29 25 25 19 44 64 60 65 77 82 71
131 127 125 127 128 130 131 130 128 124 122 120 118 117 114 109 112 111 105 103 97 93 87 79 75 70 63 52 36 47 40 18 10 4 4 2 343 24 64 62 68 65 56 53 55 57 47 34 24 24 22 12 2 7 5 357 45 37 44 52 45 46 40 37 42 51 71 59 49 51 47 40 40 41 36 33 30 31 36 50 47 73 74 83 84
130 128 128 129 130 131 132 130 126 124 121 120 118 118 116 114 112 109 102 96 93 90 85 84 81 72 60 54 31 43 45 28 13 7 8 7 1 20 61 61 46 52 66 62 54 48 53 45 30 19 15 10 13 9 9 360 48 36 43 47 47 49 44 34 38 38 35 38 35 36 38 37 38 40 40 39 37 34 37 39 37 55 79 79 95
129 127 127 128 129 128 126 125 127 127 123 121 121 118 118 115 113 108 106 104 98 90 84 80 78 69 66 58 47 35 41 41 21 13 16 13 6 7 65 64 66 66 54 59 60 56 50 49 35 18 12 19 17 13 8 5 24 45 36 38 29 25 48 51 20 33 61 53 50 44 44 40 41 41 40 40 40 38 36 33 32 41 62 62 54
131 129 129 129 131 132 126 111 117 122 123 121 119 115 111 111 107 104 103 100 97 95 95 94 85 80 73 67 59 50 31 38 37 24 23 23 18 7 65 51 66 65 68 60 59 57 55 48 45 12 8 19 22 19 13 10 6 29 17 16 353 295 314 46 30 21 51 47 54 51 46 47 45 44 44 44 47 46 46 43 43 38 44 55 64
132 132 131 130 132 130 128 117 109 112 124 123 120 115 113 113 111 108 108 106 105 104 102 94 90 87 82 70 68 65 50 33 38 35 28 30 29 26 32 27 10 75 65 72 65 67 59 50 41 359 353 12 23 21 16 11 18 23 357 340 333 342 39 51 51 51 50 51 52 55 53 51 45 46 47 47 50 54 53 51 47 49 47 43 46
134 131 130 129 130 130 127 123 122 126 122 117 118 118 113 107 103 107 110 107 106 107 103 105 101 95 89 80 77 70 64 54 33 43 37 35 33 35 29 26 2 52 67 69 64 64 61 51 26 352 344 351 9 23 22 13 22 9 0 353 346 4 54 53 52 54 58 54 52 52 53 54 55 52 53 53 52 54 57 56 53 53 54 51 51
130 129 130 130 129 128 128 128 126 123 123 121 118 118 118 119 120 117 122 119 120 114 113 117 115 111 104 98 90 84 75 71 57 52 52 45 47 43 37 31 22 48 55 64 59 55 57 45 9 339 345 342 352 28 31 22 17 11 6 2 8 31 49 57 54 53 57 61 60 58 54 53 54 57 58 61 61 63 61 62 64 58 55 54 52
133 131 130 131 132 129 126 125 124 125 123 123 118 117 124 126 126 129 121 123 120 116 116 116 113 111 111 109 106 101 94 88 88 83 84 76 66 60 58 53 36 41 72 65 65 58 341 304 311 340 357 357 18 32 47 33 17 30 18 15 23 47 50 54 54 56 57 56 57 59 63 59 57 55 59 66 75 75 71 68 65 64 62 60 57
134 131 130 132 133 132 130 128 127 126 123 121 121 120 130 136 129 118 119 119 117 117 121 115 112 111 108 109 107 110 118 124 127 128 125 114 109 101 99 99 99 85 90 98 103 224 294 279 291 293 47 17 43 38 32 10 343 53 44 35 42 36 36 49 59 54 57 56 54 57 56 56 57 62 62 60 60 62 69 69 65 65 62 61 60
132 131 130 132 134 133 132 131 130 127 122 122 128 135 120 111 116 127 123 113 108 116 117 117 114 110 107 103 98 90 81 64 40 37 29 5 145 151 155 134 125 162 168 164 197 142 76 10 9 307 282 293 293 57 45 26 25 35 48 48 47 41 36 33 41 55 66 65 60 61 61 57 61 63 60 60 64 65 62 64 62 64 69 70 70
135 133 131 132 132 135 131 133 133 127 116 102 117 132 135 83 53 41 24 19 127 130 118 113 113 115 115 107 96 91 82 59 36 16 9 357 349 36 42 40 70 43 31 10 354 21 27 96 240 22 16 24 33 45 44 44 38 31 35 42 48 50 43 28 26 36 41 48 57 60 70 72 62 56 60 61 60 63 65 67 65 63 61 67 72
134 134 134 136 132 134 145 147 125 93 75 74 58 33 27 65 87 66 43 36 21 22 103 98 88 65 53 56 91 100 72 60 39 3 360 353 13 24 34 26 13 50 357 333 305 52 48 50 46 48 53 45 40 37 40 41 44 44 38 32 39 44 46 48 45 38 38 42 39 39 48 50 58 60 59 58 51 51 58 66 63 68 69 68 67
135 134 137 138 142 154 139 119 120 115 106 90 80 67 54 48 38 57 68 38 48 51 52 46 34 81 80 49 30 55 75 69 29 359 10 20 32 34 25 11 2 345 335 327 318 59 55 55 50 47 46 50 49 50 45 41 41 47 48 38 38 35 40 48 47 47 40 39 44 40 34 40 55 61 63 62 66 60 52 49 65 65 67 68 73
135 134 137 138 136 131 129 133 129 121 118 113 104 104 93 64 53 55 59 55 53 50 48 45 43 35 50 87 62 59 70 65 49 27 24 33 30 25 12 358 345 337 331 335 31 62 54 56 60 60 53 46 44 48 54 57 54 47 49 51 47 39 36 41 44 45 42 50 47 44 45 41 38 39 62 67 66 64 60 57 61 67 69 69 72
131 133 129 127 130 132 126 123 124 122 122 122 119 120 111 103 79 49 49 57 58 56 55 55 51 53 43 47 88 110 88 63 36 29 28 24 14 3 352 344 337 331 324 305 29 68 71 68 65 57 50 51 50 48 46 48 47 54 54 49 52 53 48 45 38 43 43 42 42 51 54 50 47 39 37 53 63 67 68 68 67 64 65 67 69
131 128 130 136 131 125 129 130 129 127 126 126 128 126 122 118 108 99 68 63 66 65 64 64 65 60 61 59 54 62 67 52 36 30 19 4 354 344 337 324 321 313 315 340 66 61 60 58 57 57 57 58 49 43 47 46 48 45 49 52 51 45 52 54 46 48 45 42 47 42 38 48 55 54 44 37 50 74 71 66 70 73 77 83 76
130 138 143 139 139 139 136 135 134 133 133 135 132 129 126 122 122 120 119 116 99 81 72 67 72 79 68 61 68 72 60 45 28 8 346 328 321 316 329 310 299 292 274 105 69 67 59 63 60 63 59 50 50 49 52 53 48 46 47 53 54 54 46 41 50 46 41 38 42 47 50 49 41 46 49 47 39 35 56 79 71 66 72 69 69
138 115 126 143 140 140 139 135 136 137 138 133 131 131 125 129 134 135 134 133 127 121 116 100 59 29 76 96 71 57 52 24 348 324 309 298 297 297 302 274 256 249 56 53 54 62 70 63 65 60 63 62 59 53 46 42 49 52 49 44 49 48 53 52 49 44 45 43 40 38 33 46 60 60 56 51 44 47 37 29 49 77 78 66 72
136 144 147 149 141 138 139 143 139 136 138 138 133 127 134 143 145 142 135 129 130 130 128 111 108 86 84 80 111 105 127 291 313 303 288 290 283 304 305 75 47 66 70 77 73 64 56 59 62 60 58 62 56 55 57 57 45 41 44 53 45 46 40 39 37 49 58 53 46 39 42 38 32 41 58 65 74 65 49 46 38 27 48 85 91
145 146 150 145 140 139 135 134 141 133 127 123 130 139 149 147 138 137 141 140 134 128 123 129 133 138 166 128 149 170 208 226 236 262 274 276 283 267 242 78 82 71 72 62 58 56 62 60 57 62 55 51 55 56 53 57 66 64 49 50 52 50 51 43 27 24 38 53 56 58 56 56 51 40 42 52 51 51 71 88 68 45 35 360 25
146 151 150 141 138 134 131 113 91 89 126 142 143 139 138 138 146 150 138 131 132 139 144 146 154 146 146 131 180 171 175 233 274 287 272 273 275 58 70 58 65 72 63 57 55 72 65 55 52 54 54 53 49 53 50 50 46 51 57 61 58 55 265 42 40 25 34 47 45 46 51 57 64 73 65 54 50 53 43 27 42 84 62 50 65
124 69 81 111 126 127 122 127 137 145 141 142 137 140 142 144 146 136 133 139 156 154 146 157 161 142 138 144 167 158 170 191 204 204 163 36 57 62 79 77 67 66 73 85 76 63 73 73 64 50 47 51 49 49 55 49 47 37 37 50 48 27 18 43 40 31 28 38 50 41 45 53 48 46 61 69 66 63 60 50 40 29 52 56 38
126 132 104 100 117 116 132 139 146 143 139 136 134 135 139 146 140 140 153 160 152 154 164 149 139 145 153 164 153 190 194 169 139 138 143 138 84 66 89 86 85 89 76 65 67 80 77 69 59 68 58 53 50 46 47 48 44 38 31 15 40 70 37 26 34 33 30 20 31 43 37 40 63 65 49 42 55 58 50 70 67 61 34 31 47
138 127 134 130 122 135 138 144 143 138 137 135 138 149 149 146 149 156 152 147 153 157 144 148 140 110 73 33 350 340 308 165 140 137 143 141 121 102 104 110 117 113 119 88 61 66 62 71 62 57 44 37 40 55 52 49 44 37 29 30 39 33 76 63 30 32 23 43 25 21 31 28 31 28 35 42 40 27 43 29 47 45 65 54 9
132 138 138 135 149 146 143 145 128 131 136 146 155 140 138 150 151 151 144 152 154 152 143 134 117 116 88 28 328 329 304 141 128 129 136 157 152 111 81 91 72 52 62 81 78 44 43 51 61 73 69 61 48 39 61 47 38 50 23 34 26 11 18 64 59 34 0 42 46 27 19 18 360 54 48 347 24 40 33 15 13 48 38 31 53
140 142 140 154 154 149 146 131 143 147 148 152 137 138 151 153 146 138 151 154 151 150 143 134 128 133 134 77 310 311 281 115 121 135 129 124 129 149 166 120 118 114 97 98 100 105 107 96 83 94 98 82 46 8 359 34 356 15 83 32 28 12 1 10 44 336 5 73 78 57 322 318 307 40 24 7 6 9 37 3 353 359 8 39 28
145 142 149 154 147 146 140 147 148 148 154 122 130 151 159 151 147 159 154 153 154 153 150 141 141 145 156 188 228 247 216 156 182 155 133 118 131 173 155 136 100 114 130 108 92 106 106 117 111 82 71 42 61 73 1 53 350 359 356 111 93 4 340 25 9 11 359 358 32 273 271 36 339 299 100 40 2 336 323 59 333 13 340 9 36
143 150 150 149 148 149 149 151 146 133 113 126 155 158 171 162 163 165 158 161 162 169 150 150 150 156 168 182 204 217 168 168 111 128 172 187 160 208 152 132 155 200 127 124 117 108 129 81 74 120 286 243 154 176 238 130 105 304 353 348 313 168 83 39 8 18 11 325 301 314 331 340 326 347 349 11 219 263 317 5 8 4 301 339 338
150 150 154 148 152 149 152 150 144 140 152 165 162 170 178 171 168 162 167 167 171 174 156 159 165 171 179 188 196 194 207 166 177 192 187 198 198 197 157 187 160 173 183 205 154 182 203 207 222 162 188 243 265 251 234 173 229 237 254 211 288 89 141 161 143 281 351 322 326 328 3 255 313 35 34 324 322 359 5 357 293 313 342 309 296
151 155 151 152 155 151 158 146 162 156 170 171 169 170 182 170 163 164 170 170 176 180 167 175 175 183 194 191 191 188 203 201 206 183 198 217 219 211 199 195 191 200 185 203 195 194 188 228 244 248 245 252 239 236 266 260 231 204 207 236 211 148 218 198 167 239 192 237 317 332 346 337 322 212 169 241 287 265 265 272 289 285 280 289 297
157 155 159 153 152 159 151 161 155 160 170 170 173 169 181 169 160 172 170 167 181 192 188 183 187 188 196 198 198 204 203 206 208 217 215 208 210 218 219 211 204 219 228 221 210 217 223 209 211 226 234 228 244 255 253 254 261 253 236 220 227 196 107 110 203 233 244 233 237 278 286 289 319 338 359 355 312 338 308 292 270 260 240 248 258
161 161 161 160 161 155 159 165 157 182 171 172 167 175 175 179 166 182 169 175 184 198 206 193 197 198 193 203 205 210 209 215 227 218 217 225 226 220 211 211 209 218 229 229 225 220 221 233 234 226 224 231 227 232 242 250 254 260 253 259 124 125 146 160 217 275 15 296 249 264 274 278 270 274 279 279 292 281 278 303 296 294 283 266 265
169 165 164 167 166 163 160 163 167 186 169 173 170 181 173 193 176 189 179 184 191 199 208 209 212 211 213 211 212 222 227 222 219 228 235 240 234 227 224 218 210 209 218 226 233 232 227 225 223 226 230 233 235 237 235 238 239 246 252 252 139 162 155 173 198 187 213 249 259 263 267 269 277 276 273 268 253 251 268 268 265 272 274 282 279
173 173 167 171 179 169 166 172 173 191 168 178 176 185 174 195 186 190 196 192 199 199 207 213 215 218 226 228 224 220 220 229 236 240 237 232 231 234 234 233 226 212 215 220 226 229 232 232 231 221 216 220 226 230 235 240 242 239 240 202 164 188 177 188 192 205 212 238 254 262 260 260 259 260 258 257 259 252 239 244 263 275 285 284 283